DAL470 PANC-KSEA

Flight info

Callsign DAL470
Flight time 2h 54m
Altitude 35000
Route JOH LAIRE BKA DUGGS VIXOR MARNR8
Aircraft B77L/H-SDE1E2E3FGHIJ2J3J4J5M1RWXY/LB1D1

Departure

Time 2026-05-08 03:43
Airport Ted Stevens Anchorage International Airport (PANC)

Arrival

Time 2026-05-08 06:38
Airport Seattle–Tacoma International Airport (KSEA)
Time Latitude Longitude Altitude Speed Heading
2026-05-08 03:33 61.17888 -149.98869 125 ft 0 kts 160°
2026-05-08 03:35 61.17903 -149.98880 122 ft 3 kts 162°
2026-05-08 03:35 61.17909 -149.98885 121 ft 0 kts 164°
2026-05-08 03:35 61.17911 -149.98888 121 ft 0 kts 184°
2026-05-08 03:37 61.17894 -149.98916 125 ft 11 kts 228°
2026-05-08 03:37 61.17890 -149.99069 120 ft 10 kts 279°
2026-05-08 03:37 61.17871 -149.99264 120 ft 14 kts 225°
2026-05-08 03:38 61.17780 -149.99247 120 ft 10 kts 154°
2026-05-08 03:38 61.17722 -149.99166 121 ft 6 kts 151°
2026-05-08 03:38 61.17613 -149.99074 122 ft 23 kts 160°
2026-05-08 03:38 61.17460 -149.98956 121 ft 25 kts 158°
2026-05-08 03:39 61.17312 -149.98842 123 ft 23 kts 161°
2026-05-08 03:39 61.17178 -149.98746 120 ft 23 kts 161°
2026-05-08 03:39 61.17071 -149.98670 122 ft 7 kts 161°
2026-05-08 03:39 61.16990 -149.98611 123 ft 19 kts 160°
2026-05-08 03:40 61.16889 -149.98534 121 ft 0 kts 159°
2026-05-08 03:40 61.16878 -149.98526 122 ft 8 kts 159°
2026-05-08 03:40 61.16796 -149.98427 119 ft 20 kts 120°
2026-05-08 03:40 61.16787 -149.98126 120 ft 27 kts 89°
2026-05-08 03:41 61.16787 -149.97716 122 ft 30 kts 90°
2026-05-08 03:41 61.16817 -149.97375 123 ft 20 kts 71°
2026-05-08 03:41 61.16794 -149.97248 121 ft 5 kts 212°
2026-05-08 03:41 61.16786 -149.97338 122 ft 6 kts 272°
2026-05-08 03:42 61.16788 -149.97533 121 ft 26 kts 270°
2026-05-08 03:42 61.16790 -149.98164 120 ft 64 kts 269°
2026-05-08 03:42 61.16787 -149.99464 124 ft 119 kts 271°
2026-05-08 03:42 61.16796 -150.01620 151 ft 175 kts 271°
2026-05-08 03:43 61.16784 -150.04197 568 ft 188 kts 269°
2026-05-08 03:43 61.16747 -150.06952 1353 ft 195 kts 263°
2026-05-08 03:43 61.16645 -150.09759 2314 ft 197 kts 259°
2026-05-08 03:43 61.16496 -150.12568 3009 ft 197 kts 257°
2026-05-08 03:44 61.16353 -150.15419 3433 ft 205 kts 262°
2026-05-08 03:44 61.16307 -150.18490 3720 ft 222 kts 264°
2026-05-08 03:44 61.16293 -150.21769 4152 ft 233 kts 266°
2026-05-08 03:44 61.16286 -150.25152 4757 ft 237 kts 261°
2026-05-08 03:45 61.16206 -150.28537 5353 ft 241 kts 262°
2026-05-08 03:45 61.16275 -150.32077 5908 ft 251 kts 270°
2026-05-08 03:45 61.16440 -150.35692 6609 ft 254 kts 269°
2026-05-08 03:45 61.16474 -150.39316 7316 ft 249 kts 255°
2026-05-08 03:46 61.15751 -150.42430 7851 ft 241 kts 218°
2026-05-08 03:46 61.14285 -150.43909 8459 ft 237 kts 182°
2026-05-08 03:46 61.12697 -150.43194 9030 ft 241 kts 147°
2026-05-08 03:46 61.11512 -150.40719 9602 ft 248 kts 124°
2026-05-08 03:47 61.10710 -150.37579 10184 ft 255 kts 114°
2026-05-08 03:47 61.10130 -150.34086 10790 ft 259 kts 110°
2026-05-08 03:47 61.09612 -150.30508 11406 ft 263 kts 109°
2026-05-08 03:47 61.09095 -150.26847 12004 ft 267 kts 109°
2026-05-08 03:48 61.08570 -150.23150 12595 ft 271 kts 110°
2026-05-08 03:48 61.08029 -150.19389 13188 ft 275 kts 110°
2026-05-08 03:48 61.07477 -150.15594 13771 ft 279 kts 110°
2026-05-08 03:48 61.06909 -150.11735 14311 ft 283 kts 111°
2026-05-08 03:49 61.06526 -150.09161 14665 ft 286 kts 111°
2026-05-08 03:49 61.05743 -150.03927 15394 ft 291 kts 112°
2026-05-08 03:49 61.05141 -149.99937 15906 ft 294 kts 112°
2026-05-08 03:49 61.04525 -149.95874 16440 ft 298 kts 112°
2026-05-08 03:50 61.03901 -149.91775 16956 ft 302 kts 113°
2026-05-08 03:50 61.03265 -149.87620 17447 ft 306 kts 113°
2026-05-08 03:50 61.02622 -149.83428 17968 ft 310 kts 114°
2026-05-08 03:50 61.01965 -149.79161 18448 ft 313 kts 114°
2026-05-08 03:51 61.01303 -149.74869 18899 ft 317 kts 114°
2026-05-08 03:51 61.00860 -149.72008 19190 ft 318 kts 114°
2026-05-08 03:51 60.99963 -149.66226 19792 ft 322 kts 114°
2026-05-08 03:51 60.99274 -149.61803 20215 ft 326 kts 114°
2026-05-08 03:52 60.98581 -149.57354 20658 ft 330 kts 114°
2026-05-08 03:52 60.98113 -149.54356 20947 ft 333 kts 114°
2026-05-08 03:52 60.97161 -149.48283 21573 ft 336 kts 115°
2026-05-08 03:52 60.96683 -149.45239 21882 ft 337 kts 115°
2026-05-08 03:53 60.95960 -149.40644 22338 ft 341 kts 115°
2026-05-08 03:53 60.95218 -149.35954 22782 ft 346 kts 115°
2026-05-08 03:53 60.94213 -149.29614 23415 ft 352 kts 115°
2026-05-08 03:53 60.93711 -149.26449 23707 ft 354 kts 115°
2026-05-08 03:54 60.92696 -149.20068 24242 ft 357 kts 115°
2026-05-08 03:54 60.91921 -149.15212 24632 ft 359 kts 115°
2026-05-08 03:54 60.91405 -149.11986 24899 ft 360 kts 115°
2026-05-08 03:54 60.90351 -149.05420 25406 ft 364 kts 115°
2026-05-08 03:55 60.89556 -149.00485 25773 ft 366 kts 115°
2026-05-08 03:55 60.89024 -148.97174 26034 ft 368 kts 115°
2026-05-08 03:55 60.87957 -148.90574 26573 ft 370 kts 115°
2026-05-08 03:55 60.87142 -148.85563 26982 ft 372 kts 115°
2026-05-08 03:56 60.86318 -148.80514 27349 ft 376 kts 115°
2026-05-08 03:56 60.85757 -148.77078 27557 ft 377 kts 114°
2026-05-08 03:56 60.84935 -148.72044 27923 ft 379 kts 115°
2026-05-08 03:56 60.84091 -148.66920 28255 ft 380 kts 115°
2026-05-08 03:57 60.83253 -148.61760 28570 ft 385 kts 115°
2026-05-08 03:57 60.82388 -148.56544 28893 ft 390 kts 115°
2026-05-08 03:57 60.81515 -148.51306 29306 ft 391 kts 115°
2026-05-08 03:57 60.80638 -148.46031 29790 ft 390 kts 115°
2026-05-08 03:58 60.79762 -148.40767 30218 ft 391 kts 115°
2026-05-08 03:58 60.78884 -148.35500 30463 ft 394 kts 115°
2026-05-08 03:58 60.78003 -148.30239 30670 ft 399 kts 115°
2026-05-08 03:58 60.77097 -148.24851 30870 ft 403 kts 115°
2026-05-08 03:59 60.76183 -148.19425 31125 ft 406 kts 115°
2026-05-08 03:59 60.75256 -148.13938 31428 ft 408 kts 115°
2026-05-08 03:59 60.74330 -148.08469 31698 ft 410 kts 115°
2026-05-08 03:59 60.73393 -148.02946 31973 ft 412 kts 115°
2026-05-08 04:00 60.72449 -147.97409 32232 ft 415 kts 115°
2026-05-08 04:00 60.71497 -147.91838 32454 ft 418 kts 115°
2026-05-08 04:00 60.70534 -147.86216 32686 ft 421 kts 115°
2026-05-08 04:00 60.69563 -147.80567 32923 ft 424 kts 115°
2026-05-08 04:01 60.68595 -147.74967 33156 ft 427 kts 115°
2026-05-08 04:01 60.67603 -147.69232 33345 ft 429 kts 115°
2026-05-08 04:01 60.66607 -147.63486 33570 ft 432 kts 115°
2026-05-08 04:01 60.65598 -147.57699 33788 ft 435 kts 115°
2026-05-08 04:02 60.64583 -147.51891 34015 ft 437 kts 115°
2026-05-08 04:02 60.63558 -147.46048 34207 ft 439 kts 115°
2026-05-08 04:02 60.62529 -147.40190 34416 ft 441 kts 115°
2026-05-08 04:02 60.61492 -147.34302 34611 ft 443 kts 115°
2026-05-08 04:03 60.60448 -147.28400 34812 ft 444 kts 115°
2026-05-08 04:03 60.58356 -147.16618 35056 ft 448 kts 115°
2026-05-08 04:03 60.57292 -147.10657 35092 ft 449 kts 115°
2026-05-08 04:04 60.55128 -146.98591 35126 ft 461 kts 116°
2026-05-08 04:04 60.52883 -146.86182 35149 ft 475 kts 115°
2026-05-08 04:05 60.50568 -146.73421 35148 ft 489 kts 115°
2026-05-08 04:05 60.48193 -146.60421 35147 ft 502 kts 116°
2026-05-08 04:06 60.45312 -146.47467 35150 ft 509 kts 122°
2026-05-08 04:06 60.42075 -146.34616 35126 ft 516 kts 123°
2026-05-08 04:07 60.38825 -146.21688 35135 ft 518 kts 122°
2026-05-08 04:07 60.35612 -146.08691 35141 ft 517 kts 122°
2026-05-08 04:08 60.32440 -145.95819 35135 ft 515 kts 122°
2026-05-08 04:08 60.29251 -145.82937 35087 ft 512 kts 123°
2026-05-08 04:09 60.26061 -145.70155 35129 ft 510 kts 123°
2026-05-08 04:09 60.22868 -145.57461 35136 ft 509 kts 123°
2026-05-08 04:10 60.19688 -145.44890 35137 ft 508 kts 124°
2026-05-08 04:10 60.16474 -145.32249 35138 ft 509 kts 124°
2026-05-08 04:11 60.13255 -145.19647 35134 ft 509 kts 124°
2026-05-08 04:11 60.10007 -145.07024 35132 ft 510 kts 124°
2026-05-08 04:12 60.06742 -144.94400 35136 ft 512 kts 124°
2026-05-08 04:12 60.03478 -144.81845 35134 ft 513 kts 125°
2026-05-08 04:13 60.00172 -144.69197 35083 ft 514 kts 125°
2026-05-08 04:13 59.96855 -144.56577 35125 ft 515 kts 126°
2026-05-08 04:14 59.93536 -144.44030 35128 ft 516 kts 126°
2026-05-08 04:14 59.90176 -144.31423 35128 ft 516 kts 126°
2026-05-08 04:15 59.86814 -144.18827 35136 ft 516 kts 126°
2026-05-08 04:15 59.83429 -144.06221 35136 ft 516 kts 126°
2026-05-08 04:16 59.80039 -143.93686 35127 ft 516 kts 126°
2026-05-08 04:16 59.76639 -143.81188 35132 ft 515 kts 126°
2026-05-08 04:17 59.73253 -143.68807 35135 ft 514 kts 126°
2026-05-08 04:17 59.69837 -143.56379 35088 ft 514 kts 127°
2026-05-08 04:18 59.66419 -143.44012 35120 ft 513 kts 127°
2026-05-08 04:18 59.62987 -143.31670 35139 ft 513 kts 127°
2026-05-08 04:19 59.59568 -143.19436 35136 ft 514 kts 127°
2026-05-08 04:19 59.56107 -143.07120 35132 ft 514 kts 127°
2026-05-08 04:20 59.52640 -142.94839 35126 ft 513 kts 127°
2026-05-08 04:20 59.49165 -142.82602 35130 ft 512 kts 127°
2026-05-08 04:21 59.45683 -142.70405 35129 ft 512 kts 127°
2026-05-08 04:21 59.42216 -142.58328 35135 ft 511 kts 128°
2026-05-08 04:22 59.38719 -142.46209 35115 ft 511 kts 127°
2026-05-08 04:22 59.35222 -142.34151 35135 ft 510 kts 127°
2026-05-08 04:23 59.31708 -142.22099 35146 ft 509 kts 128°
2026-05-08 04:23 59.28218 -142.10193 35135 ft 509 kts 128°
2026-05-08 04:24 59.24690 -141.98217 35133 ft 509 kts 128°
2026-05-08 04:24 59.21159 -141.86298 35130 ft 507 kts 128°
2026-05-08 04:25 59.17627 -141.74428 35134 ft 506 kts 128°
2026-05-08 04:25 59.14084 -141.62585 35135 ft 506 kts 128°
2026-05-08 04:26 59.10560 -141.50866 35139 ft 505 kts 128°
2026-05-08 04:26 59.07001 -141.39092 35115 ft 505 kts 128°
2026-05-08 04:27 59.03442 -141.27375 35128 ft 504 kts 128°
2026-05-08 04:27 58.99879 -141.15707 35137 ft 503 kts 128°
2026-05-08 04:28 58.96327 -141.04131 35135 ft 503 kts 128°
2026-05-08 04:28 58.92745 -140.92512 35135 ft 503 kts 128°
2026-05-08 04:29 58.89152 -140.80919 35135 ft 503 kts 128°
2026-05-08 04:29 58.85550 -140.69350 35138 ft 503 kts 128°
2026-05-08 04:30 58.81942 -140.57810 35137 ft 503 kts 128°
2026-05-08 04:30 58.78255 -140.46369 35135 ft 501 kts 131°
2026-05-08 04:31 58.74355 -140.35423 35121 ft 498 kts 131°
2026-05-08 04:31 58.70397 -140.24523 35128 ft 498 kts 131°
2026-05-08 04:32 58.66460 -140.13588 35136 ft 498 kts 131°
2026-05-08 04:32 58.62546 -140.02666 35137 ft 497 kts 131°
2026-05-08 04:33 58.58658 -139.91844 35133 ft 497 kts 131°
2026-05-08 04:33 58.54741 -139.80996 35125 ft 495 kts 131°
2026-05-08 04:34 58.50821 -139.70188 35126 ft 494 kts 131°
2026-05-08 04:34 58.46901 -139.59437 35133 ft 494 kts 131°
2026-05-08 04:35 58.42969 -139.48705 35134 ft 494 kts 131°
2026-05-08 04:35 58.39056 -139.38072 35110 ft 493 kts 131°
2026-05-08 04:36 58.35117 -139.27411 35123 ft 492 kts 131°
2026-05-08 04:36 58.31173 -139.16788 35128 ft 492 kts 131°
2026-05-08 04:37 58.27224 -139.06197 35133 ft 492 kts 131°
2026-05-08 04:37 58.23261 -138.95618 35129 ft 492 kts 131°
2026-05-08 04:38 58.19322 -138.85147 35128 ft 492 kts 131°
2026-05-08 04:38 58.15350 -138.74634 35128 ft 492 kts 131°
2026-05-08 04:39 58.11370 -138.64148 35128 ft 492 kts 132°
2026-05-08 04:39 58.07399 -138.53731 35129 ft 492 kts 132°
2026-05-08 04:40 58.03398 -138.43279 35118 ft 491 kts 132°
2026-05-08 04:40 57.99400 -138.32882 35125 ft 491 kts 132°
2026-05-08 04:41 57.95394 -138.22510 35118 ft 490 kts 132°
2026-05-08 04:41 57.91376 -138.12154 35119 ft 490 kts 132°
2026-05-08 04:42 57.87351 -138.01821 35109 ft 490 kts 132°
2026-05-08 04:42 57.83351 -137.91599 35120 ft 490 kts 132°
2026-05-08 04:43 57.79317 -137.81331 35126 ft 490 kts 132°
2026-05-08 04:43 57.75278 -137.71098 35123 ft 490 kts 132°
2026-05-08 04:44 57.71220 -137.60858 35122 ft 490 kts 132°
2026-05-08 04:44 57.67191 -137.50738 35112 ft 489 kts 132°
2026-05-08 04:45 57.63122 -137.40553 35117 ft 489 kts 132°
2026-05-08 04:45 57.59051 -137.30409 35118 ft 489 kts 132°
2026-05-08 04:46 57.54963 -137.20269 35122 ft 490 kts 133°
2026-05-08 04:46 57.50898 -137.10228 35093 ft 490 kts 132°
2026-05-08 04:47 57.46801 -137.00148 35112 ft 490 kts 133°
2026-05-08 04:47 57.42694 -136.90088 35116 ft 490 kts 133°
2026-05-08 04:48 57.38567 -136.80021 35111 ft 491 kts 133°
2026-05-08 04:48 57.34428 -136.69966 35114 ft 492 kts 133°
2026-05-08 04:49 57.30308 -136.59999 35105 ft 491 kts 133°
2026-05-08 04:49 57.26157 -136.49999 35109 ft 491 kts 133°
2026-05-08 04:50 57.21994 -136.40013 35109 ft 491 kts 133°
2026-05-08 04:50 57.17827 -136.30057 35106 ft 491 kts 133°
2026-05-08 04:51 57.13685 -136.20201 35087 ft 490 kts 133°
2026-05-08 04:51 57.09513 -136.10313 35107 ft 490 kts 133°
2026-05-08 04:52 57.05335 -136.00453 35110 ft 489 kts 133°
2026-05-08 04:52 57.01156 -135.90631 35108 ft 489 kts 133°
2026-05-08 04:53 56.96980 -135.80855 35112 ft 488 kts 133°
2026-05-08 04:53 56.92827 -135.71172 35113 ft 487 kts 133°
2026-05-08 04:54 56.88634 -135.61429 35117 ft 487 kts 133°
2026-05-08 04:54 56.84364 -135.51872 35105 ft 482 kts 139°
2026-05-08 04:55 56.79638 -135.43392 35109 ft 480 kts 141°
2026-05-08 04:55 56.74830 -135.35008 35110 ft 480 kts 141°
2026-05-08 04:56 56.70039 -135.26536 35118 ft 480 kts 141°
2026-05-08 04:56 56.65278 -135.18044 35108 ft 479 kts 141°
2026-05-08 04:57 56.60531 -135.09579 35110 ft 479 kts 141°
2026-05-08 04:57 56.55820 -135.01209 35086 ft 478 kts 141°
2026-05-08 04:58 56.51078 -134.92821 35110 ft 476 kts 141°
2026-05-08 04:58 56.46343 -134.84480 35109 ft 476 kts 141°
2026-05-08 04:59 56.41599 -134.76155 35108 ft 476 kts 141°
2026-05-08 04:59 56.36873 -134.67892 35113 ft 476 kts 141°
2026-05-08 05:00 56.32120 -134.59619 35114 ft 476 kts 141°
2026-05-08 05:00 56.27356 -134.51341 35116 ft 476 kts 141°
2026-05-08 05:01 56.22594 -134.43100 35106 ft 476 kts 141°
2026-05-08 05:01 56.17825 -134.34881 35103 ft 477 kts 141°
2026-05-08 05:02 56.13067 -134.26712 35082 ft 477 kts 141°
2026-05-08 05:02 56.08281 -134.18524 35090 ft 477 kts 141°
2026-05-08 05:03 56.03484 -134.10346 35085 ft 477 kts 141°
2026-05-08 05:03 55.98681 -134.02187 35086 ft 477 kts 141°
2026-05-08 05:04 55.93894 -133.94084 35054 ft 477 kts 141°
2026-05-08 05:04 55.89083 -133.85970 35078 ft 478 kts 141°
2026-05-08 05:05 55.84252 -133.77851 35073 ft 478 kts 142°
2026-05-08 05:05 55.79426 -133.69771 35078 ft 478 kts 142°
2026-05-08 05:06 55.74617 -133.61747 35078 ft 478 kts 142°
2026-05-08 05:06 55.69776 -133.53697 35081 ft 478 kts 142°
2026-05-08 05:07 55.64930 -133.45670 35093 ft 478 kts 142°
2026-05-08 05:07 55.60068 -133.37644 35074 ft 479 kts 142°
2026-05-08 05:08 55.55234 -133.29693 35081 ft 479 kts 142°
2026-05-08 05:08 55.50362 -133.21706 35073 ft 479 kts 142°
2026-05-08 05:09 55.45486 -133.13742 35075 ft 479 kts 142°
2026-05-08 05:09 55.40591 -133.05775 35079 ft 480 kts 142°
2026-05-08 05:10 55.33268 -132.93909 35080 ft 480 kts 142°
2026-05-08 05:11 55.28350 -132.85974 35072 ft 481 kts 142°
2026-05-08 05:11 55.23426 -132.78061 35078 ft 481 kts 142°
2026-05-08 05:12 55.18490 -132.70151 35073 ft 481 kts 142°
2026-05-08 05:12 55.13584 -132.62317 35065 ft 482 kts 143°
2026-05-08 05:13 55.08633 -132.54440 35063 ft 481 kts 143°
2026-05-08 05:13 55.03687 -132.46598 35066 ft 482 kts 143°
2026-05-08 05:14 54.98732 -132.38770 35062 ft 481 kts 143°
2026-05-08 05:14 54.93807 -132.31026 35060 ft 481 kts 143°
2026-05-08 05:15 54.88842 -132.23229 35057 ft 482 kts 143°
2026-05-08 05:15 54.83878 -132.15467 35063 ft 482 kts 143°
2026-05-08 05:16 54.78897 -132.07708 35067 ft 482 kts 143°
2026-05-08 05:16 54.73916 -131.99974 35076 ft 482 kts 143°
2026-05-08 05:17 54.68962 -131.92308 35048 ft 482 kts 143°
2026-05-08 05:17 54.63965 -131.84599 35084 ft 481 kts 144°
2026-05-08 05:18 54.59002 -131.76969 35072 ft 477 kts 144°
2026-05-08 05:18 54.54068 -131.69412 35076 ft 474 kts 144°
2026-05-08 05:19 54.49137 -131.61889 35079 ft 473 kts 144°
2026-05-08 05:19 54.44249 -131.54454 35078 ft 474 kts 144°
2026-05-08 05:20 54.39309 -131.46967 35085 ft 476 kts 144°
2026-05-08 05:20 54.34337 -131.39455 35085 ft 478 kts 144°
2026-05-08 05:21 54.29344 -131.31936 35089 ft 480 kts 144°
2026-05-08 05:21 54.24358 -131.24451 35084 ft 481 kts 144°
2026-05-08 05:22 54.19328 -131.16924 35083 ft 482 kts 144°
2026-05-08 05:22 54.14296 -131.09419 35073 ft 481 kts 145°
2026-05-08 05:23 54.09290 -131.01979 35071 ft 481 kts 145°
2026-05-08 05:23 54.04252 -130.94517 35058 ft 480 kts 145°
2026-05-08 05:24 53.99225 -130.87096 35063 ft 480 kts 145°
2026-05-08 05:24 53.94180 -130.79674 35061 ft 480 kts 145°
2026-05-08 05:25 53.89139 -130.72283 35054 ft 480 kts 145°
2026-05-08 05:25 53.84120 -130.64947 35054 ft 480 kts 145°
2026-05-08 05:26 53.79063 -130.57581 35046 ft 481 kts 146°
2026-05-08 05:26 53.73989 -130.50215 35056 ft 482 kts 146°
2026-05-08 05:27 53.68905 -130.42857 35056 ft 482 kts 146°
2026-05-08 05:27 53.63837 -130.35547 35055 ft 483 kts 146°
2026-05-08 05:28 53.58731 -130.28206 35068 ft 484 kts 146°
2026-05-08 05:28 53.53616 -130.20876 35070 ft 484 kts 146°
2026-05-08 05:29 53.48492 -130.13557 35067 ft 485 kts 146°
2026-05-08 05:29 53.43358 -130.06249 35051 ft 485 kts 146°
2026-05-08 05:30 53.38214 -129.98952 35072 ft 485 kts 146°
2026-05-08 05:30 53.33104 -129.91725 35067 ft 486 kts 146°
2026-05-08 05:31 53.27940 -129.84443 35060 ft 486 kts 146°
2026-05-08 05:31 53.22782 -129.77195 35053 ft 486 kts 146°
2026-05-08 05:32 53.17643 -129.69996 35052 ft 486 kts 146°
2026-05-08 05:32 53.12474 -129.62781 35055 ft 486 kts 146°
2026-05-08 05:33 53.07291 -129.55564 35065 ft 486 kts 146°
2026-05-08 05:33 53.02144 -129.48328 35044 ft 488 kts 144°
2026-05-08 05:34 52.97208 -129.40569 35057 ft 490 kts 142°
2026-05-08 05:34 52.92335 -129.32701 35067 ft 490 kts 142°
2026-05-08 05:35 52.87461 -129.24915 35053 ft 490 kts 142°
2026-05-08 05:35 52.82542 -129.17154 35061 ft 490 kts 143°
2026-05-08 05:36 52.77598 -129.09407 35064 ft 490 kts 143°
2026-05-08 05:36 52.72694 -129.01750 35068 ft 490 kts 143°
2026-05-08 05:37 52.67741 -128.94037 35067 ft 491 kts 143°
2026-05-08 05:37 52.62774 -128.86324 35057 ft 491 kts 143°
2026-05-08 05:38 52.57816 -128.78649 35064 ft 491 kts 143°
2026-05-08 05:38 52.52844 -128.70979 35069 ft 491 kts 143°
2026-05-08 05:39 52.47901 -128.63380 35066 ft 491 kts 143°
2026-05-08 05:39 52.42913 -128.55736 35061 ft 491 kts 143°
2026-05-08 05:40 52.37926 -128.48115 35067 ft 491 kts 143°
2026-05-08 05:40 52.32932 -128.40513 35065 ft 492 kts 143°
2026-05-08 05:41 52.27951 -128.32953 35060 ft 492 kts 143°
2026-05-08 05:41 52.22942 -128.25374 35060 ft 492 kts 143°
2026-05-08 05:42 52.17922 -128.17804 35063 ft 492 kts 143°
2026-05-08 05:42 52.12895 -128.10246 35063 ft 492 kts 143°
2026-05-08 05:43 52.07858 -128.02699 35042 ft 492 kts 143°
2026-05-08 05:43 52.02858 -127.95232 35065 ft 492 kts 143°
2026-05-08 05:44 51.97810 -127.87722 35062 ft 490 kts 144°
2026-05-08 05:44 51.92822 -127.80305 35063 ft 485 kts 144°
2026-05-08 05:45 51.87868 -127.72978 35045 ft 484 kts 144°
2026-05-08 05:45 51.82859 -127.65602 35078 ft 492 kts 144°
2026-05-08 05:46 51.77819 -127.58197 35061 ft 494 kts 144°
2026-05-08 05:46 51.72747 -127.50753 35066 ft 494 kts 144°
2026-05-08 05:47 51.67665 -127.43327 35056 ft 493 kts 144°
2026-05-08 05:47 51.62596 -127.35947 35056 ft 492 kts 144°
2026-05-08 05:48 51.57545 -127.28614 35061 ft 491 kts 144°
2026-05-08 05:48 51.52512 -127.21326 35054 ft 491 kts 144°
2026-05-08 05:49 51.47450 -127.14021 35058 ft 490 kts 144°
2026-05-08 05:49 51.42379 -127.06725 35058 ft 491 kts 144°
2026-05-08 05:50 51.37298 -126.99453 35047 ft 491 kts 144°
2026-05-08 05:50 51.32245 -126.92232 35056 ft 492 kts 144°
2026-05-08 05:51 51.27135 -126.84951 35057 ft 493 kts 144°
2026-05-08 05:51 51.22009 -126.77670 35073 ft 495 kts 144°
2026-05-08 05:52 51.16888 -126.70418 35060 ft 496 kts 144°
2026-05-08 05:52 51.11734 -126.63140 35026 ft 496 kts 144°
2026-05-08 05:53 51.06576 -126.55880 35057 ft 496 kts 144°
2026-05-08 05:53 51.01407 -126.48634 35059 ft 496 kts 144°
2026-05-08 05:54 50.96246 -126.41414 35070 ft 496 kts 144°
2026-05-08 05:54 50.91105 -126.34238 35050 ft 496 kts 144°
2026-05-08 05:55 50.85942 -126.27060 35055 ft 495 kts 144°
2026-05-08 05:55 50.80770 -126.19895 35067 ft 495 kts 144°
2026-05-08 05:56 50.75610 -126.12773 35063 ft 495 kts 144°
2026-05-08 05:56 50.70427 -126.05630 35053 ft 495 kts 144°
2026-05-08 05:57 50.65249 -125.98513 35056 ft 495 kts 144°
2026-05-08 05:57 50.60076 -125.91439 35054 ft 496 kts 144°
2026-05-08 05:58 50.54873 -125.84339 35037 ft 496 kts 144°
2026-05-08 05:58 50.49660 -125.77244 35048 ft 497 kts 144°
2026-05-08 05:59 50.44434 -125.70154 35061 ft 497 kts 144°
2026-05-08 05:59 50.39238 -125.63128 35056 ft 498 kts 144°
2026-05-08 06:00 50.33993 -125.56052 35054 ft 499 kts 144°
2026-05-08 06:00 50.28744 -125.48996 35053 ft 499 kts 144°
2026-05-08 06:01 50.23479 -125.41940 35051 ft 499 kts 144°
2026-05-08 06:01 50.18249 -125.34949 35053 ft 498 kts 144°
2026-05-08 06:02 50.12989 -125.27944 35055 ft 498 kts 144°
2026-05-08 06:02 50.07731 -125.20960 35055 ft 498 kts 144°
2026-05-08 06:03 50.02454 -125.13971 35056 ft 498 kts 144°
2026-05-08 06:03 49.97209 -125.07045 35043 ft 498 kts 144°
2026-05-08 06:04 49.91943 -125.00114 35058 ft 498 kts 144°
2026-05-08 06:04 49.86659 -124.93178 35059 ft 499 kts 144°
2026-05-08 06:05 49.81371 -124.86259 35062 ft 499 kts 144°
2026-05-08 06:05 49.76096 -124.79377 35058 ft 500 kts 144°
2026-05-08 06:06 49.70822 -124.72515 35066 ft 500 kts 144°
2026-05-08 06:06 49.65499 -124.65611 35052 ft 501 kts 145°
2026-05-08 06:07 49.60165 -124.58712 35034 ft 502 kts 144°
2026-05-08 06:07 49.54817 -124.51816 35050 ft 502 kts 144°
2026-05-08 06:08 49.49496 -124.44975 35057 ft 503 kts 145°
2026-05-08 06:08 49.44127 -124.38091 35021 ft 501 kts 145°
2026-05-08 06:08 49.41468 -124.34687 34572 ft 498 kts 144°
2026-05-08 06:09 49.38810 -124.31290 34055 ft 494 kts 144°
2026-05-08 06:09 49.36188 -124.27943 33477 ft 491 kts 144°
2026-05-08 06:09 49.33573 -124.24612 32917 ft 488 kts 144°
2026-05-08 06:09 49.30975 -124.21309 32406 ft 484 kts 144°
2026-05-08 06:10 49.28397 -124.18035 31921 ft 480 kts 144°
2026-05-08 06:10 49.25843 -124.14796 31448 ft 476 kts 144°
2026-05-08 06:10 49.23329 -124.11613 30941 ft 473 kts 144°
2026-05-08 06:10 49.20806 -124.08423 30435 ft 471 kts 144°
2026-05-08 06:11 49.18287 -124.05241 29929 ft 468 kts 144°
2026-05-08 06:11 49.15785 -124.02085 29408 ft 464 kts 144°
2026-05-08 06:11 49.13308 -123.98964 28943 ft 460 kts 144°
2026-05-08 06:11 49.10856 -123.95879 28504 ft 455 kts 144°
2026-05-08 06:12 49.08422 -123.92823 28050 ft 451 kts 144°
2026-05-08 06:12 49.06022 -123.89812 27581 ft 447 kts 144°
2026-05-08 06:12 49.03619 -123.86803 27089 ft 445 kts 144°
2026-05-08 06:12 49.01270 -123.83863 26640 ft 442 kts 144°
2026-05-08 06:13 48.98907 -123.80911 26206 ft 438 kts 144°
2026-05-08 06:13 48.96569 -123.77991 25788 ft 434 kts 144°
2026-05-08 06:13 48.94238 -123.75084 25374 ft 431 kts 144°
2026-05-08 06:13 48.91930 -123.72212 24966 ft 428 kts 144°
2026-05-08 06:14 48.89642 -123.69366 24560 ft 425 kts 144°
2026-05-08 06:14 48.87359 -123.66531 24147 ft 422 kts 144°
2026-05-08 06:14 48.85090 -123.63716 23735 ft 419 kts 144°
2026-05-08 06:14 48.82880 -123.60979 23305 ft 417 kts 144°
2026-05-08 06:15 48.80641 -123.58206 22854 ft 414 kts 143°
2026-05-08 06:15 48.78426 -123.55466 22416 ft 410 kts 143°
2026-05-08 06:15 48.76246 -123.52774 22023 ft 407 kts 144°
2026-05-08 06:15 48.74063 -123.50085 21618 ft 404 kts 143°
2026-05-08 06:16 48.71860 -123.47468 21213 ft 400 kts 148°
2026-05-08 06:16 48.69550 -123.45190 20799 ft 396 kts 152°
2026-05-08 06:16 48.67219 -123.43096 20375 ft 394 kts 153°
2026-05-08 06:16 48.64870 -123.41026 20113 ft 394 kts 152°
2026-05-08 06:17 48.60154 -123.36799 20080 ft 394 kts 152°
2026-05-08 06:17 48.57810 -123.34652 20049 ft 392 kts 151°
2026-05-08 06:17 48.55508 -123.32525 19779 ft 389 kts 151°
2026-05-08 06:18 48.53207 -123.30388 19380 ft 387 kts 151°
2026-05-08 06:18 48.50925 -123.28268 18911 ft 386 kts 151°
2026-05-08 06:18 48.48674 -123.26176 18507 ft 384 kts 151°
2026-05-08 06:18 48.46421 -123.24082 18095 ft 381 kts 151°
2026-05-08 06:19 48.44173 -123.21996 17669 ft 377 kts 150°
2026-05-08 06:19 48.41959 -123.19944 17255 ft 374 kts 150°
2026-05-08 06:19 48.39746 -123.17894 16833 ft 371 kts 150°
2026-05-08 06:19 48.37565 -123.15878 16416 ft 369 kts 150°
2026-05-08 06:20 48.35383 -123.13863 15981 ft 366 kts 150°
2026-05-08 06:20 48.33232 -123.11878 15574 ft 363 kts 150°
2026-05-08 06:20 48.31113 -123.09925 15177 ft 360 kts 150°
2026-05-08 06:20 48.28990 -123.07970 14752 ft 358 kts 150°
2026-05-08 06:21 48.26873 -123.06022 14340 ft 356 kts 150°
2026-05-08 06:21 48.24777 -123.04095 13971 ft 354 kts 150°
2026-05-08 06:21 48.22676 -123.02165 13452 ft 354 kts 150°
2026-05-08 06:21 48.21293 -123.00898 13123 ft 353 kts 150°
2026-05-08 06:22 48.18507 -122.98344 12563 ft 349 kts 150°
2026-05-08 06:22 48.16451 -122.96461 12159 ft 346 kts 150°
2026-05-08 06:22 48.15090 -122.95216 11885 ft 345 kts 150°
2026-05-08 06:22 48.13057 -122.93357 11451 ft 343 kts 150°
2026-05-08 06:23 48.10373 -122.90904 10888 ft 340 kts 150°
2026-05-08 06:23 48.08369 -122.89075 10480 ft 338 kts 150°
2026-05-08 06:23 48.06371 -122.87255 10112 ft 335 kts 150°
2026-05-08 06:23 48.04391 -122.85394 10004 ft 337 kts 144°
2026-05-08 06:24 48.02842 -122.82880 9992 ft 323 kts 122°
2026-05-08 06:24 48.02110 -122.80993 10073 ft 316 kts 121°
2026-05-08 06:24 48.00583 -122.77318 10052 ft 307 kts 124°
2026-05-08 06:24 47.99825 -122.75567 10048 ft 301 kts 124°
2026-05-08 06:25 47.98360 -122.72123 9885 ft 293 kts 119°
2026-05-08 06:25 47.97567 -122.69342 9463 ft 293 kts 110°
2026-05-08 06:25 47.96926 -122.66466 9068 ft 291 kts 109°
2026-05-08 06:25 47.96505 -122.64536 8802 ft 290 kts 109°
2026-05-08 06:26 47.95878 -122.61731 8428 ft 288 kts 110°
2026-05-08 06:26 47.95229 -122.58927 8100 ft 285 kts 110°
2026-05-08 06:26 47.94566 -122.56131 8101 ft 289 kts 110°
2026-05-08 06:26 47.93682 -122.52448 8081 ft 273 kts 111°
2026-05-08 06:27 47.93269 -122.50731 8054 ft 257 kts 111°
2026-05-08 06:27 47.92616 -122.48332 7663 ft 246 kts 124°
2026-05-08 06:27 47.90867 -122.46378 6906 ft 241 kts 164°
2026-05-08 06:27 47.89271 -122.45686 6525 ft 236 kts 164°
2026-05-08 06:28 47.87730 -122.44997 5989 ft 229 kts 164°
2026-05-08 06:28 47.86726 -122.44549 5536 ft 228 kts 164°
2026-05-08 06:28 47.85206 -122.43874 4838 ft 228 kts 164°
2026-05-08 06:28 47.83693 -122.43203 4185 ft 226 kts 164°
2026-05-08 06:29 47.82219 -122.42528 3634 ft 218 kts 162°
2026-05-08 06:29 47.80391 -122.41600 3108 ft 198 kts 162°
2026-05-08 06:29 47.79129 -122.40955 3111 ft 193 kts 162°
2026-05-08 06:29 47.77843 -122.40302 3108 ft 195 kts 162°
2026-05-08 06:30 47.77008 -122.39878 3116 ft 187 kts 162°
2026-05-08 06:30 47.75816 -122.39273 3102 ft 175 kts 162°
2026-05-08 06:30 47.74685 -122.38702 3091 ft 170 kts 162°
2026-05-08 06:30 47.73560 -122.38135 3106 ft 170 kts 162°
2026-05-08 06:31 47.72466 -122.37583 3093 ft 162 kts 162°
2026-05-08 06:31 47.71417 -122.37056 3091 ft 159 kts 162°
2026-05-08 06:31 47.70368 -122.36529 3095 ft 159 kts 162°
2026-05-08 06:31 47.69317 -122.36001 3098 ft 159 kts 162°
2026-05-08 06:32 47.67924 -122.35301 3107 ft 160 kts 162°
2026-05-08 06:32 47.67209 -122.34943 3107 ft 160 kts 162°
2026-05-08 06:32 47.66151 -122.34412 3107 ft 161 kts 162°
2026-05-08 06:32 47.65089 -122.33881 3106 ft 162 kts 162°
2026-05-08 06:33 47.64037 -122.33354 3099 ft 162 kts 162°
2026-05-08 06:33 47.62978 -122.32824 3096 ft 161 kts 162°
2026-05-08 06:33 47.61937 -122.32303 3083 ft 155 kts 162°
2026-05-08 06:33 47.60925 -122.31800 2879 ft 152 kts 164°
2026-05-08 06:34 47.59891 -122.31676 2617 ft 153 kts 185°
2026-05-08 06:34 47.58813 -122.31734 2598 ft 156 kts 180°
2026-05-08 06:34 47.57751 -122.31727 2594 ft 150 kts 180°
2026-05-08 06:34 47.56706 -122.31726 2573 ft 151 kts 180°
2026-05-08 06:35 47.55660 -122.31728 2330 ft 150 kts 180°
2026-05-08 06:35 47.54633 -122.31734 2100 ft 149 kts 180°
2026-05-08 06:35 47.53572 -122.31737 2105 ft 153 kts 180°
2026-05-08 06:35 47.52533 -122.31741 2072 ft 150 kts 180°
2026-05-08 06:36 47.51496 -122.31747 1736 ft 147 kts 180°
2026-05-08 06:36 47.50472 -122.31754 1288 ft 148 kts 179°
2026-05-08 06:36 47.49395 -122.31768 1093 ft 159 kts 180°
2026-05-08 06:36 47.48307 -122.31792 810 ft 153 kts 180°
2026-05-08 06:37 47.47284 -122.31786 613 ft 140 kts 180°
2026-05-08 06:37 47.46360 -122.31790 416 ft 126 kts 180°
2026-05-08 06:37 47.45583 -122.31800 397 ft 89 kts 180°
2026-05-08 06:37 47.45146 -122.31802 397 ft 57 kts 179°
2026-05-08 06:38 47.45000 -122.31782 397 ft 6 kts 170°
2026-05-08 06:38 47.44911 -122.31752 397 ft 14 kts 163°
2026-05-08 06:38 47.44798 -122.31680 395 ft 9 kts 152°
2026-05-08 06:38 47.44751 -122.31637 397 ft 18 kts 145°
2026-05-08 06:39 47.44663 -122.31478 395 ft 13 kts 110°
2026-05-08 06:39 47.44647 -122.31338 398 ft 14 kts 94°
2026-05-08 06:39 47.44646 -122.31232 398 ft 0 kts 90°
2026-05-08 06:39 47.44629 -122.31130 393 ft 21 kts 114°
2026-05-08 06:40 47.44526 -122.31002 394 ft 19 kts 150°
2026-05-08 06:40 47.44437 -122.30926 397 ft 13 kts 150°
2026-05-08 06:40 47.44364 -122.30824 395 ft 16 kts 114°
2026-05-08 06:40 47.44345 -122.30673 396 ft 16 kts 107°
2026-05-08 06:41 47.44340 -122.30553 398 ft 13 kts 114°
2026-05-08 06:41 47.44241 -122.30541 395 ft 15 kts 184°
2026-05-08 06:41 47.44113 -122.30546 397 ft 21 kts 181°
2026-05-08 06:41 47.44002 -122.30541 397 ft 6 kts 155°
2026-05-08 06:42 47.43942 -122.30484 397 ft 10 kts 140°
2026-05-08 06:42 47.43910 -122.30430 395 ft 1 kts 126°
2026-05-08 06:42 47.43908 -122.30428 396 ft 0 kts 126°